Back to catalog

STARLINK-37439

AliveCommunicationsVLEO
NORAD 69377·PAYLOAD·🇺🇸 United States

Launched Jun 4, 2026 from Cape Canaveral Space Force Station

Loading…

Next Passes (next 24 hours)

TLE

FreshSource: CelesTrak SupGP

Epoch: Sep 14, 2026, 23:20 UTC

1 69377C 26123AA  26257.97270833 -.00088272  00000+0 -25247-2 0  2574
2 69377  53.1575 167.6872 0001322  92.1581 115.9733 15.35453360    16

Track STARLINK-37439 in real time with AllMySat

Download on the App Store